User: anonymous   Login
Location: Leuk
(46.3174°N, 7.6341°E)
Time: 05:52:38
(UTC+00:00)
Language:

Cosmos 1633 Rocket - Orbit

View from above orbital plane
View from above orbital plane
View from above satellite
View from above satellite

Ground track
Ground track

The orbit data is extracted from the following two-line orbital elements,

1 15593U 85020B   21127.92643166  .00000077  00000-0  63057-5 0  9998
2 15593  82.5405  13.0364 0012467  33.5635 326.6368 14.84428251933964
Epoch (UTC): 07 May 2021 22:14:03
Eccentricity: 0.0012467
inclination: 82.5405°
perigee height: 606 km
apogee height: 624 km
right ascension of ascending node: 13.0364°
argument of perigee: 33.5635°
revolutions per day: 14.84428251
mean anomaly at epoch: 326.6368°
orbit number at epoch: 93396

The dashed part of the orbit path shows where the satellite is in the earth's shadow,  

DLR